Wetbulb
49.86 50.59 51.46 52.43 52.66 52.36 51.85 51.28 52.67 52.55 52.62 52.48 52.89 53.49 53.72 54.54 55.35 56.77 56.68 56.43 57.27 58.97 58.87 58.79 58.68 58.33 55.23 48.71 48.57 56.11 60.62 59.35 57.73 56.96 55.10 54.17 52.48 52.18 49.15 49.58 50.13 48.28 49.82 50.48 51.06 51.87 52.29
50.04 49.66 50.72 51.83 51.95 52.49 52.43 52.04 52.63 52.56 52.53 51.88 52.39 52.72 52.99 53.66 53.78 54.95 56.25 56.37 56.49 57.57 58.41 58.59 58.73 58.56 51.83 43.87 55.66 56.73 55.80 56.56 55.96 55.82 54.55 54.27 52.66 53.75 51.04 50.14 49.61 51.13 50.57 51.60 52.15 52.90 52.81
50.25 50.14 50.13 50.80 51.18 51.68 52.27 51.97 51.70 51.78 51.69 51.59 51.87 52.43 52.45 52.49 52.82 52.89 54.20 55.46 55.80 56.25 57.98 58.37 58.57 55.97 50.53 48.04 55.12 55.53 55.08 54.08 54.48 54.16 53.02 54.80 55.37 53.17 52.72 50.25 53.03 51.63 48.69 50.63 51.25 51.94 51.49
49.51 49.98 49.35 50.02 50.57 51.22 51.72 51.69 51.52 51.44 51.44 51.44 51.46 52.08 51.85 51.74 52.43 53.35 53.61 54.00 55.18 56.00 56.85 58.26 58.52 54.80 46.52 55.56 57.35 55.28 55.78 53.79 54.74 54.37 53.65 55.73 56.21 54.00 52.56 53.18 50.81 48.81 48.19 44.45 49.55 50.56 51.47
49.44 48.94 48.76 49.03 49.90 50.48 51.00 51.20 51.01 51.15 51.09 51.39 51.45 51.57 51.34 52.00 52.37 52.23 52.26 52.79 55.04 55.90 56.55 57.88 55.27 51.70 45.29 55.92 51.70 54.64 55.04 51.43 53.11 53.40 54.20 55.40 55.15 52.28 51.00 47.99 45.29 45.94 42.53 43.94 46.00 50.78 49.66
48.78 48.89 48.65 48.43 49.45 50.09 50.64 50.81 50.73 50.77 50.56 50.77 51.11 51.13 51.00 51.38 51.26 50.81 51.05 51.76 54.99 55.80 56.39 57.65 54.83 46.53 49.19 46.19 51.75 52.97 55.12 53.57 50.33 50.64 50.26 51.72 51.49 48.38 46.88 45.80 37.87 40.85 41.95 43.90 43.88 47.45 47.39
48.08 48.26 48.30 48.32 48.82 49.43 50.45 50.35 50.31 50.47 50.38 50.07 50.24 50.52 50.20 50.36 50.47 50.36 49.41 51.60 47.24 46.24 50.45 48.01 47.17 44.70 47.59 50.96 53.45 51.40 53.20 51.03 50.36 48.19 43.23 48.53 45.20 42.73 45.31 46.99 47.13 45.26 44.08 43.11 45.42 48.44 46.12
47.32 47.50 47.65 47.95 48.24 49.04 49.79 49.52 49.80 49.77 49.67 49.71 49.60 50.01 49.50 48.67 49.17 49.58 49.10 44.34 47.59 49.58 43.78 49.76 49.03 48.18 49.71 50.88 44.98 48.56 53.35 46.25 45.45 41.16 44.81 44.62 42.39 46.99 48.41 47.05 46.26 45.28 43.27 42.86 44.85 47.19 45.92
46.78 46.92 46.96 47.49 48.24 48.82 49.30 49.01 49.15 48.98 48.48 49.03 49.28 49.41 49.27 48.48 48.89 45.90 44.28 44.58 50.57 49.68 41.93 44.85 49.18 47.56 47.76 49.26 44.45 45.10 50.08 47.18 43.53 41.06 42.12 40.66 44.36 48.13 46.74 44.95 43.67 44.24 42.81 43.33 42.42 45.41 47.35
46.27 46.27 46.84 47.59 48.04 48.26 48.39 48.42 48.48 48.64 48.78 48.40 48.20 48.46 48.53 47.87 42.81 43.69 42.98 46.97 49.42 51.05 34.56 36.91 44.01 46.91 47.64 48.38 42.91 49.41 51.58 47.83 44.19 40.24 42.07 41.74 45.99 45.42 44.80 43.70 44.85 39.95 46.63 45.47 43.92 42.53 38.38
45.95 46.51 46.91 47.21 47.39 47.21 47.12 47.58 47.97 47.78 47.62 48.32 48.43 48.08 48.00 47.48 41.67 40.79 44.15 46.66 49.99 47.43 19.99 36.37 41.48 51.70 48.69 43.94 45.72 44.95 50.48 48.16 41.95 41.54 42.05 39.40 41.79 42.20 42.22 43.64 46.24 42.31 46.62 45.09 44.33 42.13 41.49
46.31 46.50 46.85 46.60 46.45 46.68 46.80 46.87 47.21 47.34 47.55 47.41 47.84 47.60 47.30 44.56 43.60 44.16 46.37 45.91 46.48 30.19 20.42 35.60 41.87 41.63 41.48 43.54 44.28 46.14 45.36 49.52 48.99 43.31 43.30 42.45 46.48 45.35 44.67 46.48 47.09 47.74 44.67 43.92 43.43 41.50 34.29
46.54 46.72 46.70 46.70 46.81 46.64 46.71 46.78 46.89 47.33 47.22 47.54 47.69 47.03 45.55 45.61 38.53 44.95 45.95 41.61 25.83 20.74 36.23 33.72 36.39 40.47 39.21 39.08 39.74 42.19 40.40 39.72 39.48 36.04 36.16 40.44 40.91 45.23 46.62 42.74 46.61 45.63 41.88 34.37 32.80 32.03 32.27
46.31 46.51 46.66 46.64 46.52 46.33 46.29 46.15 46.52 47.03 47.16 47.08 47.25 46.84 44.87 44.43 44.91 44.54 41.15 30.81 17.92 24.81 30.69 37.35 38.69 39.15 35.24 39.00 38.61 39.64 38.90 36.16 42.24 41.83 37.61 34.34 32.68 40.66 45.74 43.55 41.06 42.67 41.78 34.48 27.43 29.57 33.08
46.25 46.11 46.30 46.44 46.53 46.45 46.45 46.53 46.61 46.81 47.08 46.87 46.17 40.86 41.92 42.27 44.34 43.91 34.16 19.55 20.63 26.63 33.13 32.05 34.35 33.94 34.98 38.02 38.55 38.07 37.53 37.55 40.73 42.89 36.98 35.66 35.40 43.93 44.41 46.35 45.11 40.93 38.09 43.43 36.57 36.74 34.78
45.96 45.89 46.01 46.10 46.24 46.33 46.29 46.49 46.73 46.80 46.63 46.59 40.15 39.76 38.20 42.67 44.35 40.02 29.21 21.61 25.20 32.14 34.33 33.99 28.13 30.93 33.28 35.08 35.09 35.92 35.73 40.39 40.28 43.71 46.48 42.02 35.03 42.55 42.99 46.44 46.37 43.94 45.66 36.31 37.70 30.05 28.82
45.63 45.73 45.77 45.91 46.03 46.02 46.12 46.32 46.51 46.58 46.43 45.67 40.37 34.46 39.03 42.46 43.09 33.24 22.58 21.85 25.72 31.63 31.93 29.91 29.24 30.74 32.03 34.37 35.98 34.82 35.49 40.04 42.63 42.65 45.28 43.61 40.39 38.65 42.80 40.51 40.22 41.21 39.77 41.29 40.79 38.23 31.59
45.08 45.28 45.44 45.56 45.58 45.79 45.83 45.73 46.01 46.36 46.76 43.85 37.55 28.48 38.56 42.87 29.93 30.08 23.65 24.52 30.45 29.60 33.64 31.44 33.02 30.91 30.10 31.26 31.00 35.35 34.80 38.44 43.95 43.64 38.74 42.91 40.86 34.86 38.26 44.62 46.35 44.72 41.35 40.90 34.17 33.17 36.35
45.90 45.54 45.62 45.78 45.69 45.69 45.62 45.77 46.11 46.07 46.00 39.25 33.45 32.95 40.01 40.04 23.80 24.66 24.82 25.43 28.96 27.83 28.87 29.30 30.10 33.10 33.54 30.62 30.24 34.26 38.23 42.91 43.26 42.07 40.36 41.99 36.91 32.99 34.25 39.16 41.51 40.71 42.26 42.95 41.63 36.17 34.62
45.95 45.98 45.94 45.59 45.57 45.75 45.84 45.81 45.75 46.03 46.29 41.59 33.24 27.40 32.54 34.84 33.57 27.26 24.92 22.83 24.02 30.81 29.71 30.34 29.34 32.11 30.26 28.26 31.29 28.15 30.24 39.85 43.62 43.02 44.27 44.15 38.66 35.58 31.68 35.51 39.17 37.15 40.77 42.84 41.18 35.10 36.01
46.20 46.07 46.08 45.88 45.60 45.70 45.81 45.81 45.73 45.99 46.43 41.72 32.73 29.79 31.74 25.22 27.09 28.88 28.30 26.02 23.18 24.24 31.19 32.31 29.10 28.87 29.38 26.08 26.79 27.44 31.04 32.66 39.04 43.92 43.26 40.30 34.15 37.09 38.58 39.94 39.46 39.46 39.53 40.96 39.61 39.95 36.78
45.54 45.80 46.23 46.02 46.03 45.79 45.88 45.97 46.35 46.51 46.50 38.96 31.06 31.06 33.06 28.61 29.72 27.96 27.90 25.21 24.52 26.33 28.50 27.70 27.74 29.95 29.79 26.93 28.41 24.60 29.97 31.17 30.19 37.99 40.67 41.17 33.43 35.88 33.71 38.63 38.18 35.89 39.52 40.87 41.21 42.39 41.97
45.67 46.01 45.86 45.73 45.52 45.69 46.06 46.17 46.59 46.64 45.95 37.69 37.54 37.41 34.79 31.36 29.00 26.89 26.79 27.22 27.14 29.61 29.83 31.06 30.41 30.26 29.28 31.13 34.85 35.75 35.26 34.90 33.71 31.66 30.48 34.91 35.41 33.56 30.47 36.24 36.40 31.92 36.29 38.42 40.39 43.24 43.33
46.19 45.89 45.63 45.84 46.03 46.22 46.20 46.57 46.93 46.91 45.93 41.57 37.67 37.72 31.01 24.91 27.90 27.33 28.56 29.32 27.97 29.10 27.30 30.96 31.85 29.40 32.91 37.49 37.75 36.17 35.28 35.62 35.65 34.75 35.25 32.14 36.72 35.94 32.59 34.26 26.05 36.65 43.06 41.88 40.11 41.94 44.69
45.88 45.77 45.95 46.15 46.15 46.34 46.43 46.54 46.63 46.84 46.77 42.32 40.09 37.01 32.65 26.86 29.41 28.74 28.73 28.83 30.63 31.59 30.05 29.80 31.88 34.95 37.76 35.35 29.89 27.07 26.80 29.04 30.75 33.36 33.33 38.59 38.25 32.68 30.90 31.40 33.56 36.86 39.01 40.01 38.58 38.35 43.88
45.81 45.44 45.49 45.46 45.36 45.44 45.41 45.72 46.18 46.32 46.54 44.20 42.24 41.06 36.31 29.32 27.99 31.60 29.49 30.63 28.11 28.42 28.66 30.33 35.36 37.89 35.71 31.08 27.96 22.09 22.19 27.50 29.40 31.29 36.54 39.84 41.04 35.44 30.87 29.75 28.27 36.68 39.12 44.20 44.44 34.66 45.36
45.32 45.08 44.99 45.37 45.41 45.55 45.46 45.62 45.90 45.86 45.95 44.23 41.67 43.00 37.41 30.04 33.09 33.12 29.41 28.83 32.40 30.73 28.56 30.09 29.93 31.14 35.16 28.32 23.86 23.22 25.53 32.23 25.93 27.97 30.27 33.42 34.70 32.35 30.61 29.77 32.85 39.16 37.47 45.59 33.15 37.55 45.79
45.06 44.94 45.23 45.29 45.41 45.43 45.50 45.51 45.74 46.11 46.09 43.86 40.99 43.78 38.42 32.03 33.66 35.89 35.22 32.21 33.13 31.90 27.78 31.25 30.25 31.61 29.94 25.19 25.39 25.66 28.38 31.30 30.82 32.52 33.00 31.78 30.18 31.16 32.35 29.82 28.10 40.18 39.99 38.68 41.55 38.54 43.22
44.98 45.06 45.06 45.13 44.88 44.85 44.92 45.11 45.50 46.07 46.21 45.79 39.20 43.88 43.14 35.40 33.75 39.55 38.63 39.51 38.19 37.50 33.80 33.65 32.34 31.26 33.33 31.00 30.10 31.57 29.03 30.89 31.57 28.41 33.93 30.50 34.62 32.79 35.19 35.17 37.94 40.46 39.85 42.41 40.76 41.35 41.61
MSLP
1016.57 1016.27 1016.12 1015.88 1015.69 1015.58 1015.49 1015.49 1015.48 1015.51 1015.55 1015.59 1015.58 1015.49 1015.31 1015.08 1015.00 1014.89 1014.86 1014.68 1014.56 1014.42 1014.53 1014.87 1015.14 1015.65 1015.99 1015.51 1013.27 1011.71 1011.94 1012.13 1012.11 1012.24 1012.11 1011.98 1011.81 1011.61 1011.55 1011.63 1011.74 1011.53 1010.90 1010.76 1010.55 1010.38 1010.37
1015.93 1015.73 1015.62 1015.55 1015.38 1015.27 1015.18 1015.17 1015.19 1015.25 1015.29 1015.40 1015.37 1015.29 1015.32 1015.14 1014.87 1014.78 1014.53 1014.33 1014.38 1014.27 1014.11 1014.38 1014.87 1015.29 1015.69 1014.48 1012.28 1011.68 1011.94 1011.92 1012.08 1012.12 1012.00 1011.92 1011.62 1011.49 1011.34 1011.22 1011.24 1010.84 1010.70 1010.51 1010.41 1010.25 1010.12
1015.65 1015.47 1015.33 1015.27 1015.15 1014.88 1014.93 1014.91 1015.03 1015.00 1015.01 1015.12 1015.15 1015.04 1015.10 1015.04 1014.80 1014.56 1014.34 1014.16 1014.13 1014.09 1013.80 1013.90 1014.21 1014.73 1014.92 1012.00 1011.75 1011.75 1011.96 1012.06 1012.31 1012.41 1011.98 1011.71 1011.46 1011.52 1011.33 1011.14 1010.85 1010.71 1010.68 1010.37 1010.05 1009.92 1009.79
1015.38 1015.17 1014.93 1014.81 1014.83 1014.63 1014.52 1014.52 1014.64 1014.71 1014.74 1014.77 1014.85 1014.81 1014.88 1014.93 1014.71 1014.48 1014.22 1014.08 1013.96 1013.85 1013.73 1013.65 1013.90 1014.20 1012.82 1011.74 1011.71 1012.10 1011.88 1011.96 1011.96 1012.06 1012.14 1011.75 1011.61 1011.46 1011.41 1011.27 1011.04 1010.81 1010.79 1010.19 1009.21 1009.20 1009.22
1014.89 1014.68 1014.56 1014.32 1014.23 1014.26 1014.14 1014.11 1014.18 1014.26 1014.34 1014.43 1014.50 1014.55 1014.66 1014.67 1014.52 1014.38 1014.07 1013.80 1013.51 1013.47 1013.48 1013.54 1013.83 1013.77 1011.97 1010.93 1011.20 1011.65 1011.79 1011.67 1011.66 1011.63 1011.51 1011.59 1011.61 1011.42 1011.45 1011.39 1011.36 1010.92 1009.93 1009.95 1009.26 1008.83 1008.85
1014.43 1014.24 1013.95 1013.75 1013.77 1013.82 1013.67 1013.61 1013.66 1013.80 1013.96 1014.06 1014.22 1014.30 1014.38 1014.51 1014.46 1014.27 1013.95 1013.42 1013.10 1013.21 1013.19 1013.35 1013.13 1013.81 1011.49 1010.63 1010.71 1010.78 1011.17 1011.55 1011.55 1011.50 1011.46 1011.51 1011.56 1011.32 1011.18 1011.01 1009.47 1010.26 1010.27 1009.76 1009.05 1008.75 1008.75
1014.10 1013.89 1013.76 1013.61 1013.55 1013.39 1013.19 1013.12 1013.22 1013.37 1013.58 1013.75 1013.84 1013.99 1014.19 1014.34 1014.36 1014.36 1014.13 1013.37 1013.64 1013.32 1012.57 1010.98 1010.99 1010.41 1009.80 1009.51 1010.28 1010.35 1010.63 1011.08 1011.51 1011.49 1010.87 1011.08 1011.32 1009.87 1009.62 1009.96 1010.23 1010.37 1010.02 1009.37 1009.07 1009.04 1008.75
1013.88 1013.61 1013.48 1013.26 1012.97 1012.83 1012.81 1012.84 1012.93 1013.04 1013.23 1013.36 1013.53 1013.71 1013.93 1014.13 1014.26 1014.33 1014.41 1013.74 1012.31 1012.44 1011.64 1010.86 1010.59 1010.18 1009.69 1009.43 1010.32 1010.11 1010.31 1010.91 1010.74 1009.55 1010.44 1010.95 1009.02 1008.58 1010.05 1010.31 1010.50 1010.21 1009.87 1009.37 1009.60 1009.11 1008.91
1013.35 1013.15 1013.06 1012.85 1012.51 1012.32 1012.24 1012.43 1012.58 1012.71 1012.93 1013.15 1013.30 1013.48 1013.66 1013.86 1013.96 1014.11 1014.15 1013.55 1012.37 1012.62 1011.61 1009.75 1009.25 1009.30 1009.11 1009.76 1009.32 1009.43 1009.72 1009.81 1009.63 1009.72 1008.82 1008.23 1005.76 1008.83 1009.25 1009.55 1009.82 1009.27 1008.98 1009.36 1009.56 1009.35 1008.50
1012.90 1012.76 1012.58 1012.29 1012.01 1011.85 1011.91 1012.05 1012.25 1012.27 1012.54 1012.82 1013.10 1013.32 1013.54 1013.81 1014.27 1013.98 1013.77 1013.60 1012.99 1012.77 1011.75 1008.95 1008.20 1007.33 1008.44 1008.75 1008.50 1008.43 1008.63 1008.81 1008.95 1008.21 1008.54 1008.59 1007.47 1007.97 1008.06 1008.28 1009.14 1008.50 1008.88 1009.51 1009.74 1010.09 1008.58
1012.71 1012.49 1012.17 1011.85 1011.67 1011.68 1011.60 1011.74 1011.82 1011.99 1012.23 1012.46 1012.73 1013.07 1013.39 1013.78 1014.05 1014.01 1013.74 1013.39 1012.54 1012.39 1010.55 1006.91 1006.11 1005.90 1006.62 1007.46 1006.95 1007.50 1007.92 1008.12 1007.49 1007.61 1008.29 1006.12 1006.67 1007.26 1007.46 1007.00 1008.39 1007.26 1008.80 1009.21 1009.57 1009.64 1009.49
1012.22 1011.97 1011.71 1011.50 1011.40 1011.30 1011.32 1011.44 1011.63 1011.86 1012.03 1012.25 1012.52 1012.82 1013.16 1013.67 1013.97 1013.77 1013.50 1013.19 1012.73 1011.92 1007.85 1006.13 1005.41 1005.19 1006.04 1006.13 1005.86 1006.80 1006.93 1007.56 1007.16 1007.63 1007.29 1005.53 1006.16 1006.57 1005.61 1007.00 1007.44 1008.07 1008.74 1009.17 1009.63 1009.84 1008.81
1011.63 1011.41 1011.21 1011.08 1010.97 1010.93 1010.96 1011.06 1011.21 1011.39 1011.67 1011.85 1012.10 1012.44 1012.82 1013.18 1013.63 1013.59 1013.36 1013.30 1012.99 1010.07 1007.28 1006.15 1005.09 1005.12 1004.84 1005.04 1005.70 1005.88 1005.95 1006.41 1005.62 1006.42 1006.40 1005.24 1005.68 1005.96 1006.00 1006.47 1006.95 1007.40 1008.29 1008.87 1009.47 1008.95 1005.87
1011.15 1010.94 1010.82 1010.72 1010.64 1010.63 1010.70 1010.74 1010.83 1010.96 1011.19 1011.44 1011.75 1012.07 1012.36 1012.85 1013.08 1013.40 1013.83 1013.93 1011.62 1008.40 1007.26 1006.38 1005.21 1005.09 1004.65 1004.77 1004.94 1005.20 1005.17 1004.92 1005.16 1004.43 1004.65 1004.61 1004.36 1004.43 1004.24 1003.76 1004.46 1005.82 1006.46 1006.32 1006.19 1006.16 1005.00
1010.88 1010.60 1010.43 1010.30 1010.23 1010.21 1010.26 1010.31 1010.40 1010.48 1010.68 1010.97 1011.37 1012.30 1012.45 1012.51 1012.70 1013.14 1013.80 1013.18 1010.84 1008.89 1007.36 1006.52 1005.77 1005.19 1004.36 1004.20 1004.17 1004.56 1003.83 1002.71 1002.51 1003.16 1002.97 1002.74 1002.11 1001.98 1002.29 1003.38 1003.96 1004.27 1005.37 1003.77 1006.21 1006.05 1005.02
1010.38 1010.15 1009.99 1009.89 1009.84 1009.83 1009.85 1009.88 1009.91 1010.08 1010.24 1010.53 1011.45 1011.87 1011.88 1011.87 1012.45 1013.03 1013.30 1012.11 1010.98 1009.45 1008.29 1007.63 1006.55 1005.98 1004.13 1003.59 1003.87 1003.44 1003.36 1002.21 1001.86 1001.93 1001.44 1000.99 1001.30 1000.96 1001.43 1002.74 1003.00 1003.22 1003.83 1005.72 1005.43 1004.89 1004.09
1009.73 1009.54 1009.44 1009.35 1009.34 1009.32 1009.34 1009.37 1009.41 1009.59 1009.79 1010.27 1011.22 1011.75 1011.10 1011.46 1012.20 1012.87 1012.28 1011.40 1010.33 1009.31 1009.22 1008.65 1007.25 1006.03 1004.92 1004.27 1003.47 1002.62 1001.91 1001.41 1001.52 1001.28 1001.45 1000.96 1001.18 1000.49 1000.64 1000.47 1000.94 1002.33 1002.49 1003.53 1003.69 1003.68 1002.81
1008.85 1008.70 1008.61 1008.59 1008.63 1008.68 1008.71 1008.72 1008.87 1009.12 1009.45 1009.93 1010.85 1011.23 1010.91 1010.99 1011.74 1011.34 1010.69 1010.08 1009.77 1008.91 1008.69 1008.25 1007.67 1007.36 1006.52 1005.67 1004.38 1002.51 1001.56 1000.37 999.82 999.91 1000.31 1000.36 1000.87 1000.26 999.62 999.23 999.56 1000.32 1001.12 1002.36 1002.33 1002.86 1002.06
1007.83 1007.71 1007.65 1007.67 1007.68 1007.72 1007.85 1007.95 1008.08 1008.43 1008.85 1009.80 1010.35 1010.61 1010.88 1010.52 1010.41 1010.45 1010.47 1010.03 1009.80 1009.16 1008.72 1008.21 1007.64 1007.32 1006.18 1006.10 1005.32 1003.35 1001.24 999.95 999.55 999.52 999.67 1000.03 1000.38 1000.33 1000.59 1000.37 1000.04 999.81 1000.09 1000.40 1001.13 1001.77 1000.99
1006.67 1006.57 1006.63 1006.71 1006.76 1006.82 1006.95 1007.08 1007.31 1007.66 1008.07 1009.23 1009.86 1009.90 1009.98 1009.72 1009.46 1009.75 1009.86 1009.53 1009.15 1008.64 1008.31 1008.07 1007.18 1006.86 1006.18 1005.34 1005.51 1005.15 1003.40 1001.68 999.93 999.22 999.53 999.85 999.48 998.95 997.34 996.71 997.80 999.60 999.53 999.81 1000.06 1000.27 998.91
1005.54 1005.52 1005.60 1005.72 1005.84 1005.94 1006.11 1006.29 1006.53 1006.83 1007.22 1008.36 1008.62 1008.55 1008.29 1008.59 1008.62 1008.65 1008.88 1008.41 1008.38 1008.37 1007.87 1007.30 1006.67 1006.22 1005.70 1005.24 1004.42 1004.88 1004.32 1003.33 1001.41 999.17 999.22 999.87 999.05 998.89 997.85 997.69 997.78 997.34 998.21 998.25 998.24 997.94 997.85
1004.52 1004.68 1004.76 1004.83 1005.03 1005.16 1005.35 1005.53 1005.71 1006.08 1006.40 1007.27 1007.50 1007.80 1007.88 1007.40 1007.25 1007.49 1007.63 1007.45 1007.50 1007.17 1007.15 1006.14 1005.63 1005.40 1005.10 1004.48 1004.38 1002.90 1003.32 1003.31 1003.68 1001.53 999.43 999.25 998.86 999.28 997.94 997.73 998.27 997.55 997.42 997.33 996.90 996.46 996.43
1003.85 1004.05 1004.22 1004.32 1004.39 1004.52 1004.66 1004.79 1005.01 1005.23 1005.78 1006.12 1006.76 1006.96 1007.10 1006.26 1006.38 1006.43 1005.97 1005.61 1005.57 1005.89 1005.30 1004.78 1004.68 1005.14 1004.47 1004.06 1004.14 1003.94 1003.73 1002.87 1002.87 1002.59 1002.13 1001.42 999.19 998.70 997.59 997.47 997.94 997.52 996.47 996.28 996.29 995.22 995.07
1003.52 1003.74 1003.84 1003.82 1003.81 1003.84 1003.93 1004.02 1004.19 1004.41 1004.85 1005.36 1005.99 1006.35 1006.46 1005.38 1005.41 1004.78 1004.70 1004.57 1004.40 1004.43 1003.92 1003.76 1003.83 1003.52 1002.74 1003.09 1003.19 1002.74 1002.55 1002.38 1001.64 1001.44 1001.83 1000.54 998.03 997.90 997.09 997.42 996.38 993.58 995.65 995.61 995.57 994.72 994.25
1003.82 1003.81 1003.71 1003.53 1003.38 1003.34 1003.36 1003.41 1003.51 1003.65 1003.83 1004.61 1004.94 1005.38 1005.23 1004.08 1003.83 1003.61 1003.63 1003.22 1003.03 1003.05 1003.10 1002.87 1002.30 1001.61 1002.44 1002.52 1002.43 1001.77 1001.24 1000.96 1000.41 999.78 999.35 998.90 996.32 996.58 995.98 995.80 995.16 993.90 993.80 993.66 994.06 992.27 993.25
1004.24 1003.95 1003.80 1003.65 1003.48 1003.37 1003.29 1003.19 1003.07 1003.03 1003.02 1003.40 1003.54 1003.98 1004.09 1003.20 1001.32 1002.13 1001.87 1001.86 1001.51 1001.73 1001.85 1001.52 1001.45 1002.15 1002.54 1002.59 1002.10 1000.56 998.90 998.47 997.13 996.53 995.79 995.52 994.32 995.20 995.54 994.93 994.05 992.19 992.45 992.37 993.52 991.97 991.97
1004.58 1004.22 1003.87 1003.67 1003.47 1003.24 1003.01 1002.78 1002.56 1002.43 1002.33 1002.50 1002.18 1002.62 1002.75 1001.33 1000.39 1000.86 1000.06 999.94 1000.56 1000.53 1000.05 1000.33 1000.90 1001.39 1001.52 1001.44 1001.12 1000.38 998.22 996.81 996.33 995.67 995.42 994.23 993.79 993.69 994.56 994.37 994.13 992.83 992.13 992.53 993.68 991.55 990.56
1004.78 1004.32 1003.91 1003.53 1003.16 1002.82 1002.46 1002.12 1001.79 1001.48 1001.28 1001.48 1000.67 1000.76 1000.66 999.48 998.66 998.93 998.62 998.57 998.94 999.03 999.09 999.08 999.82 999.64 1000.08 999.93 999.27 998.54 997.97 996.65 995.42 995.22 994.15 993.97 993.27 993.54 993.74 993.48 992.91 992.01 992.44 990.53 990.75 991.51 991.33
1004.74 1004.27 1003.76 1003.20 1002.68 1002.16 1001.60 1001.17 1000.75 1000.34 999.98 1000.00 999.29 998.66 998.91 998.70 997.07 996.75 996.17 995.64 996.01 996.43 997.17 997.73 997.64 997.48 997.63 997.86 997.90 997.00 995.46 994.81 995.34 994.99 995.00 994.55 993.56 993.16 992.86 992.32 991.64 990.72 990.26 990.48 990.58 991.18 991.95
Wind_Speed
15 20 19 18 17 17 16 16 13 10 9 10 11 12 12 11 12 10 10 8 11 11 10 10 9 7 1 5 10 4 7 4 1 5 6 4 5 6 8 5 5 7 7 6 8 6 5
18 18 18 20 17 18 16 14 12 9 9 11 11 11 11 11 11 11 10 8 9 11 11 11 12 10 3 16 5 4 4 2 1 3 3 6 5 6 4 6 9 2 6 9 5 7 5
17 17 18 18 20 18 17 14 12 11 12 11 11 10 9 11 11 11 11 11 8 9 11 12 15 8 9 20 3 4 4 2 1 3 3 5 6 4 4 2 5 2 10 10 9 5 8
15 17 18 18 18 20 18 14 13 13 12 12 13 9 8 9 10 9 9 10 9 7 9 12 16 8 13 4 16 18 15 8 4 3 3 7 2 4 4 2 1 3 3 9 6 8 6
19 19 19 21 18 21 17 14 12 12 12 12 12 7 7 8 6 6 9 11 10 9 6 11 8 6 10 4 11 15 12 13 6 4 4 6 1 4 3 8 5 4 8 9 10 11 6
18 20 22 20 18 21 19 16 12 11 10 9 11 9 6 6 6 8 10 12 7 4 4 8 4 4 7 6 5 8 13 9 6 5 3 6 4 7 5 12 16 11 8 8 13 3 5
20 21 21 18 19 21 19 15 13 12 10 8 8 8 5 4 6 7 6 3 2 4 8 9 8 4 1 6 3 5 6 12 13 9 15 6 9 20 23 19 14 9 18 17 7 7 4
20 20 21 19 18 18 17 14 13 11 9 10 7 7 4 3 6 7 2 4 3 3 8 20 11 22 9 8 4 3 12 11 14 23 16 7 24 22 13 12 15 16 19 18 8 9 4
19 20 18 20 19 17 16 14 11 9 7 9 8 7 5 2 5 3 3 5 11 12 7 8 25 22 17 9 8 9 17 10 10 15 24 26 28 16 19 16 19 21 23 17 13 4 9
18 17 18 20 20 19 17 14 13 10 8 7 6 6 6 2 2 2 3 6 7 4 7 9 11 12 12 8 9 11 21 9 11 22 21 17 24 14 20 26 20 23 17 14 13 7 12
16 18 19 18 17 15 15 13 12 11 10 8 7 7 6 5 1 1 2 6 8 4 8 9 20 10 16 18 8 19 11 13 16 11 14 23 19 24 16 26 20 19 13 16 14 15 12
17 18 17 13 13 12 12 13 13 13 10 10 8 7 5 1 2 3 5 5 2 9 9 5 11 18 17 24 26 5 21 12 6 6 13 29 12 18 31 21 20 10 2 5 5 8 13
17 17 17 14 13 11 11 11 11 12 12 11 9 9 5 4 3 3 1 1 4 14 3 8 9 16 27 22 24 23 24 23 18 17 17 23 23 10 12 19 17 21 15 7 8 9 14
16 15 15 14 13 11 10 10 10 10 10 10 10 9 4 4 5 1 2 2 13 8 11 1 3 12 21 22 19 27 21 24 28 21 15 19 15 27 18 26 21 25 21 9 18 13 16
16 15 14 14 13 12 12 11 11 11 11 10 6 1 1 3 5 3 3 7 7 8 5 14 6 9 21 20 13 19 29 29 30 32 21 19 22 9 25 15 22 21 21 28 4 1 5
17 15 15 14 14 12 11 11 12 12 11 10 3 3 4 6 8 4 5 6 4 9 9 5 14 10 6 19 18 21 22 25 27 34 28 14 15 18 18 21 18 14 26 12 13 15 20
19 18 17 16 15 14 13 13 13 12 12 5 3 2 3 10 5 3 7 8 9 17 14 4 6 9 19 6 18 15 10 13 28 27 32 25 13 7 19 19 28 19 20 13 10 9 13
19 19 19 18 17 17 17 16 15 14 13 6 3 4 4 8 6 4 12 8 9 14 8 14 11 16 19 11 9 25 19 21 30 33 32 34 13 21 20 21 28 28 24 24 10 18 14
22 21 19 18 18 18 18 18 17 15 14 4 3 3 4 4 7 9 4 5 11 11 7 6 10 10 8 7 7 9 19 23 11 31 21 22 16 11 24 11 2 28 26 23 25 0 21
21 20 20 19 18 17 16 17 17 16 17 5 3 4 4 5 4 5 11 6 9 8 16 17 19 16 19 19 17 13 16 16 14 18 34 18 22 30 23 33 20 18 30 29 26 16 20
19 18 18 18 17 16 15 15 15 15 17 7 5 5 4 5 10 14 16 7 6 4 13 13 10 23 19 14 17 14 21 24 22 17 18 26 27 29 35 28 18 24 27 32 30 27 23
16 16 15 14 16 16 16 16 15 15 15 6 4 4 4 3 5 18 19 14 23 20 14 11 20 13 16 21 17 24 15 11 14 15 19 16 13 27 29 25 26 22 22 30 32 33 28
13 13 13 12 11 14 16 16 15 16 14 4 3 3 1 3 8 10 11 17 18 18 14 22 20 12 14 18 15 22 19 17 16 16 25 22 14 12 27 28 21 26 38 30 26 29 28
5 6 9 12 13 13 13 14 14 16 17 4 3 3 4 10 12 15 14 18 21 22 24 16 15 19 23 18 11 14 14 20 19 21 23 22 25 11 8 13 23 27 18 33 26 20 27
8 7 9 10 9 9 10 12 14 16 18 6 4 5 5 12 13 14 19 22 20 19 23 22 23 23 6 7 7 7 5 8 20 24 26 29 20 7 8 9 1 10 13 29 25 37 29
13 12 10 9 8 7 7 8 10 11 13 7 6 6 6 8 17 18 19 20 17 15 16 18 16 5 10 7 7 11 7 7 6 3 9 23 22 13 5 7 9 2 7 15 19 28 25
12 11 11 10 9 10 10 11 12 14 14 9 6 15 8 12 15 14 15 15 13 13 12 5 1 8 14 8 8 8 8 3 8 11 3 9 11 20 9 4 5 8 9 16 10 7 16
14 13 13 13 13 14 15 16 15 16 17 12 8 13 13 9 17 17 24 24 14 12 13 4 4 6 7 10 7 7 7 7 3 3 2 5 4 5 5 4 12 12 12 18 8 2 4
15 15 15 16 17 18 19 19 19 19 19 17 12 11 12 10 8 14 28 29 27 25 15 9 5 6 6 6 6 4 5 1 4 6 2 5 4 2 6 7 2 18 1 4 3 7 5
Wind_Direction
296 298 299 298 294 284 279 279 281 288 296 307 314 320 326 328 322 314 299 309 315 248 226 216 194 183 174 216 237 213 331 311 181 150 176 189 174 168 191 199 196 231 240 214 229 243 244
296 294 294 297 294 287 272 272 277 285 285 294 297 305 314 318 324 322 307 303 309 279 230 207 178 155 175 243 243 266 357 327 300 201 209 187 213 223 212 213 202 235 243 253 238 242 225
307 297 292 300 298 291 275 265 272 276 284 284 289 294 313 317 317 323 322 300 288 316 250 207 169 157 223 234 176 136 22 118 77 350 253 209 216 216 173 210 212 250 279 273 242 232 233
303 290 294 291 294 290 277 259 259 262 271 278 286 292 306 307 307 316 320 301 274 281 300 206 171 170 242 213 248 261 265 275 237 220 221 283 297 217 197 248 39 210 210 265 261 217 224
292 293 296 291 292 291 277 258 253 256 262 267 270 276 299 308 320 328 325 314 276 269 275 206 156 190 250 155 218 234 237 236 241 215 199 265 239 207 164 211 239 216 228 220 276 205 149
294 292 294 290 293 289 275 255 248 252 256 274 266 265 280 302 319 328 318 298 275 284 244 177 176 119 259 203 177 219 217 210 202 199 218 180 204 210 196 197 222 218 216 235 244 168 196
297 301 305 299 293 290 271 254 252 256 256 262 275 261 259 311 320 336 339 333 181 241 218 217 190 167 5 193 77 202 163 189 214 215 207 174 205 218 211 213 235 233 231 240 226 240 260
299 295 294 291 290 286 276 261 258 258 260 255 269 254 239 290 316 329 319 246 258 52 256 223 219 214 193 87 17 222 157 177 196 211 182 187 224 220 221 200 217 228 240 240 271 240 260
295 298 292 290 287 280 268 258 262 265 275 278 267 262 256 274 319 351 212 241 285 16 257 236 219 209 218 225 225 225 181 195 200 213 199 202 226 205 205 201 211 225 228 232 242 320 268
306 305 292 287 286 280 273 263 252 257 249 256 269 273 272 275 311 248 249 340 336 140 247 226 209 218 201 196 230 183 188 178 211 213 205 227 237 222 205 216 205 233 218 233 227 245 254
312 298 293 289 287 289 276 258 264 253 258 258 258 251 261 207 184 248 315 324 302 134 240 212 201 154 171 188 135 202 181 211 216 187 176 221 216 214 215 219 205 241 205 216 219 230 267
300 299 303 297 287 283 274 258 250 249 253 254 257 257 255 358 187 253 314 317 270 218 229 236 149 181 168 197 216 178 186 212 201 212 207 234 215 213 221 220 210 205 232 191 195 206 241
301 302 304 307 303 303 286 272 262 244 240 247 250 255 233 159 213 190 347 327 202 214 129 201 197 187 201 197 208 202 185 195 191 191 205 230 233 227 206 213 197 194 181 183 205 201 244
313 305 301 298 299 299 291 279 264 254 242 248 248 248 240 166 197 147 56 164 228 235 217 28 215 197 205 196 208 205 194 198 205 200 195 217 221 207 204 211 196 197 194 201 218 223 252
309 305 303 300 295 291 286 278 268 261 253 246 230 81 202 212 174 134 144 216 231 253 244 244 252 277 202 206 203 190 213 204 198 202 205 207 233 192 197 203 191 197 204 221 279 25 263
298 295 292 291 288 285 277 269 266 260 253 246 129 189 199 191 147 116 227 223 249 251 322 334 245 225 237 188 198 190 193 216 208 204 206 204 237 205 191 196 211 196 201 197 220 221 231
289 285 281 279 278 276 273 268 263 262 251 212 140 223 245 132 131 173 226 218 234 246 268 271 300 311 232 258 210 198 192 212 211 202 215 227 239 203 168 188 193 198 198 210 207 218 219
283 280 276 272 269 264 263 256 252 250 244 230 156 211 165 146 190 195 224 198 237 257 244 242 258 267 267 276 303 219 208 206 200 205 208 218 226 237 217 211 201 201 200 204 199 207 227
278 274 273 272 267 262 260 254 250 243 231 145 190 193 178 168 211 216 261 253 233 253 249 246 245 218 263 307 306 291 221 217 198 207 203 205 221 238 231 248 327 218 213 205 213 85 214
278 271 266 267 264 262 257 251 248 239 230 162 163 217 174 212 209 197 217 222 231 215 238 243 259 263 265 269 246 272 299 279 234 213 209 207 222 218 221 214 199 208 216 219 212 219 225
274 272 262 256 258 260 261 255 245 234 223 181 186 209 195 195 221 228 232 196 203 217 223 225 247 239 244 248 271 244 259 291 279 227 209 206 222 219 234 239 200 210 214 217 219 219 219
277 270 265 258 250 254 256 252 241 232 232 204 186 181 182 205 205 210 228 232 244 248 239 232 229 244 235 248 244 277 271 242 284 302 233 194 227 226 241 234 234 237 230 225 225 228 227
275 268 269 274 268 263 258 252 243 232 217 197 181 172 249 192 208 228 215 225 234 235 244 242 253 235 236 241 239 250 250 250 244 272 284 273 204 192 229 221 222 232 232 233 244 240 233
293 275 274 272 264 257 251 243 241 234 211 173 172 164 211 246 233 233 234 234 232 229 241 248 242 241 239 266 268 275 251 257 230 236 239 249 208 199 230 193 222 240 227 223 233 244 238
17 340 310 304 294 284 266 253 246 241 231 206 158 186 209 245 240 237 235 243 247 245 244 241 240 247 298 269 273 245 217 243 237 239 234 234 204 189 199 205 319 230 204 200 204 237 235
27 27 14 4 354 332 307 286 273 263 252 221 211 186 219 250 234 237 245 238 244 245 254 245 247 208 215 239 243 255 240 215 244 270 239 228 202 194 157 208 225 303 181 196 202 248 231
3 4 2 352 336 323 311 286 273 265 261 251 228 203 219 247 242 230 228 236 227 222 250 270 125 192 198 208 228 243 249 228 248 244 207 201 191 193 175 170 249 242 155 129 160 254 207
353 348 339 332 325 315 305 294 282 271 257 249 250 221 215 240 246 231 231 237 236 219 228 176 180 196 173 197 209 195 237 201 203 282 242 193 132 194 169 151 242 165 167 164 166 162 209
336 330 325 321 318 313 310 303 292 277 270 254 268 230 217 231 264 227 229 225 220 210 210 206 210 171 182 185 203 217 261 53 201 241 188 246 196 203 200 213 275 180 315 148 110 145 205